DAL526 KATL-KSLC

Flight info

Callsign DAL526
Flight time N/A
Altitude 28000
Route CUTTN2 HANKO MEMFS TUL PER GCK HGO EKR RACER JAZZZ1
Aircraft A321/M-SDE3FGHIRWY/LB1

Departure

Time N/A
Airport Hartsfield Jackson Atlanta International Airport (KATL)

Arrival

Time 2026-05-06 04:05
Airport Salt Lake City International Airport (KSLC)
Time Latitude Longitude Altitude Speed Heading
2026-05-06 03:34 40.13691 -109.70460 28012 ft 433 kts 273°
2026-05-06 03:34 40.13812 -109.74356 28011 ft 433 kts 273°
2026-05-06 03:35 40.14051 -109.82190 28012 ft 433 kts 273°
2026-05-06 03:35 40.14284 -109.90047 28013 ft 433 kts 273°
2026-05-06 03:36 40.14510 -109.97835 28014 ft 433 kts 273°
2026-05-06 03:36 40.14733 -110.05726 28016 ft 433 kts 273°
2026-05-06 03:37 40.14910 -110.13520 28019 ft 433 kts 271°
2026-05-06 03:37 40.14865 -110.21421 28023 ft 433 kts 271°
2026-05-06 03:38 40.14805 -110.29237 28026 ft 433 kts 271°
2026-05-06 03:38 40.14737 -110.37097 28030 ft 433 kts 271°
2026-05-06 03:39 40.14664 -110.44909 28037 ft 433 kts 271°
2026-05-06 03:39 40.14585 -110.52748 28047 ft 433 kts 271°
2026-05-06 03:40 40.14500 -110.60619 28053 ft 432 kts 271°
2026-05-06 03:40 40.14410 -110.68452 28059 ft 433 kts 270°
2026-05-06 03:41 40.14315 -110.76280 28063 ft 432 kts 270°
2026-05-06 03:41 40.14265 -110.80191 27928 ft 429 kts 270°
2026-05-06 03:41 40.14215 -110.84010 27571 ft 415 kts 270°
2026-05-06 03:42 40.14164 -110.87708 27323 ft 401 kts 270°
2026-05-06 03:42 40.14115 -110.91270 27074 ft 387 kts 270°
2026-05-06 03:42 40.14067 -110.94709 26822 ft 375 kts 270°
2026-05-06 03:42 40.14019 -110.98071 26574 ft 372 kts 270°
2026-05-06 03:43 40.13970 -111.01479 26308 ft 371 kts 270°
2026-05-06 03:43 40.13920 -111.04834 26026 ft 370 kts 270°
2026-05-06 03:43 40.13869 -111.08180 25691 ft 369 kts 270°
2026-05-06 03:43 40.13818 -111.11486 25269 ft 367 kts 270°
2026-05-06 03:44 40.13766 -111.14777 24816 ft 364 kts 270°
2026-05-06 03:44 40.13713 -111.18054 24342 ft 361 kts 270°
2026-05-06 03:44 40.13660 -111.21306 23874 ft 358 kts 270°
2026-05-06 03:44 40.13607 -111.24545 23408 ft 355 kts 270°
2026-05-06 03:45 40.13555 -111.27724 22943 ft 352 kts 270°
2026-05-06 03:45 40.13500 -111.30925 22465 ft 349 kts 270°
2026-05-06 03:45 40.13446 -111.34049 21990 ft 347 kts 270°
2026-05-06 03:45 40.13390 -111.37221 21505 ft 345 kts 270°
2026-05-06 03:46 40.13334 -111.40320 21032 ft 343 kts 270°
2026-05-06 03:46 40.13276 -111.43429 20557 ft 341 kts 269°
2026-05-06 03:46 40.13219 -111.46484 20089 ft 340 kts 269°
2026-05-06 03:46 40.13161 -111.49560 19616 ft 338 kts 270°
2026-05-06 03:47 40.13188 -111.52605 19177 ft 334 kts 276°
2026-05-06 03:47 40.13608 -111.55541 19011 ft 322 kts 285°
2026-05-06 03:47 40.14343 -111.58187 19005 ft 306 kts 292°
2026-05-06 03:47 40.15234 -111.60677 19009 ft 298 kts 293°
2026-05-06 03:48 40.16141 -111.63151 19010 ft 297 kts 294°
2026-05-06 03:48 40.17036 -111.65580 19010 ft 297 kts 293°
2026-05-06 03:48 40.17924 -111.67985 19007 ft 297 kts 293°
2026-05-06 03:48 40.18823 -111.70418 19002 ft 297 kts 293°
2026-05-06 03:49 40.19722 -111.72852 18998 ft 297 kts 293°
2026-05-06 03:49 40.20612 -111.75266 18993 ft 297 kts 293°
2026-05-06 03:49 40.21522 -111.77737 18993 ft 297 kts 293°
2026-05-06 03:49 40.22422 -111.80183 18990 ft 297 kts 293°
2026-05-06 03:50 40.23310 -111.82600 18977 ft 297 kts 293°
2026-05-06 03:50 40.24204 -111.85037 18654 ft 299 kts 293°
2026-05-06 03:50 40.25103 -111.87488 18199 ft 299 kts 293°
2026-05-06 03:50 40.26005 -111.89945 17774 ft 298 kts 293°
2026-05-06 03:51 40.27015 -111.92299 17352 ft 299 kts 302°
2026-05-06 03:51 40.28377 -111.94308 16969 ft 300 kts 314°
2026-05-06 03:51 40.30047 -111.95921 16966 ft 300 kts 323°
2026-05-06 03:51 40.31848 -111.97323 16990 ft 301 kts 324°
2026-05-06 03:52 40.33684 -111.98714 17012 ft 301 kts 324°
2026-05-06 03:52 40.35507 -112.00089 17031 ft 301 kts 324°
2026-05-06 03:52 40.37322 -112.01459 17042 ft 301 kts 324°
2026-05-06 03:52 40.39144 -112.02837 16752 ft 304 kts 324°
2026-05-06 03:53 40.41051 -112.04092 16306 ft 308 kts 332°
2026-05-06 03:53 40.43080 -112.04945 15889 ft 312 kts 341°
2026-05-06 03:53 40.45256 -112.05413 15472 ft 315 kts 347°
2026-05-06 03:53 40.47424 -112.05717 15066 ft 315 kts 348°
2026-05-06 03:54 40.49610 -112.05997 14657 ft 314 kts 348°
2026-05-06 03:54 40.51777 -112.06276 14251 ft 313 kts 348°
2026-05-06 03:54 40.53921 -112.06556 13850 ft 311 kts 348°
2026-05-06 03:54 40.56084 -112.06842 13446 ft 310 kts 348°
2026-05-06 03:55 40.58234 -112.07130 13047 ft 308 kts 348°
2026-05-06 03:55 40.60364 -112.07414 12649 ft 307 kts 348°
2026-05-06 03:55 40.62477 -112.07697 12255 ft 305 kts 348°
2026-05-06 03:55 40.64579 -112.07966 11998 ft 299 kts 349°
2026-05-06 03:56 40.66625 -112.08199 12023 ft 288 kts 349°
2026-05-06 03:56 40.68573 -112.08414 12008 ft 278 kts 349°
2026-05-06 03:56 40.70492 -112.08637 11728 ft 277 kts 349°
2026-05-06 03:56 40.72400 -112.08862 11505 ft 274 kts 349°
2026-05-06 03:57 40.74306 -112.09085 11406 ft 275 kts 349°
2026-05-06 03:57 40.76217 -112.09311 11322 ft 275 kts 349°
2026-05-06 03:57 40.78120 -112.09537 11247 ft 275 kts 349°
2026-05-06 03:57 40.80006 -112.09759 11157 ft 267 kts 349°
2026-05-06 03:58 40.81815 -112.09968 11094 ft 254 kts 349°
2026-05-06 03:58 40.83564 -112.10174 11091 ft 252 kts 349°
2026-05-06 03:58 40.85297 -112.10384 11090 ft 251 kts 349°
2026-05-06 03:58 40.87003 -112.10586 10983 ft 242 kts 348°
2026-05-06 03:59 40.88629 -112.10775 10847 ft 229 kts 348°
2026-05-06 03:59 40.90203 -112.10963 10538 ft 222 kts 348°
2026-05-06 03:59 40.91740 -112.11149 10108 ft 222 kts 348°
2026-05-06 03:59 40.93276 -112.11335 9611 ft 225 kts 351°
2026-05-06 04:00 40.94848 -112.11056 9116 ft 233 kts 15°
2026-05-06 04:00 40.96199 -112.09918 8662 ft 236 kts 43°
2026-05-06 04:00 40.97078 -112.08119 8219 ft 233 kts 70°
2026-05-06 04:00 40.97305 -112.06043 7804 ft 225 kts 96°
2026-05-06 04:01 40.96900 -112.04131 7485 ft 211 kts 120°
2026-05-06 04:01 40.96039 -112.02665 7251 ft 194 kts 142°
2026-05-06 04:01 40.94949 -112.01770 7110 ft 180 kts 161°
2026-05-06 04:01 40.93747 -112.01397 6889 ft 178 kts 175°
2026-05-06 04:02 40.92529 -112.01254 6614 ft 175 kts 177°
2026-05-06 04:02 40.91362 -112.01140 6365 ft 160 kts 177°
2026-05-06 04:02 40.90308 -112.01030 6131 ft 143 kts 177°
2026-05-06 04:02 40.89315 -112.00922 6027 ft 144 kts 176°
2026-05-06 04:03 40.88329 -112.00809 5760 ft 142 kts 176°
2026-05-06 04:03 40.87351 -112.00687 5597 ft 142 kts 176°
2026-05-06 04:03 40.86362 -112.00561 5396 ft 142 kts 176°
2026-05-06 04:03 40.85375 -112.00436 5168 ft 141 kts 177°
2026-05-06 04:04 40.84409 -112.00329 5015 ft 141 kts 176°
2026-05-06 04:04 40.83425 -112.00230 4863 ft 140 kts 177°
2026-05-06 04:04 40.82454 -112.00125 4670 ft 141 kts 176°
2026-05-06 04:04 40.81482 -112.00005 4425 ft 139 kts 176°
2026-05-06 04:05 40.80508 -111.99895 4250 ft 139 kts 176°
2026-05-06 04:05 40.79628 -111.99799 4223 ft 106 kts 174°
2026-05-06 04:05 40.79064 -111.99733 4223 ft 57 kts 173°
2026-05-06 04:05 40.78751 -111.99693 4223 ft 41 kts 174°
2026-05-06 04:06 40.78498 -111.99595 4224 ft 29 kts 141°
2026-05-06 04:06 40.78428 -111.99501 4224 ft 2 kts 133°
2026-05-06 04:06 40.78425 -111.99487 4224 ft 1 kts 93°
2026-05-06 04:06 40.78424 -111.99466 4224 ft 2 kts 92°
2026-05-06 04:07 40.78423 -111.99428 4224 ft 5 kts 92°
2026-05-06 04:07 40.78442 -111.99361 4224 ft 10 kts 36°
2026-05-06 04:07 40.78527 -111.99352 4224 ft 14 kts 354°
2026-05-06 04:07 40.78633 -111.99348 4224 ft 15 kts 39°
2026-05-06 04:08 40.78656 -111.99219 4224 ft 14 kts 86°
2026-05-06 04:08 40.78665 -111.99085 4225 ft 14 kts 85°
2026-05-06 04:08 40.78674 -111.98964 4225 ft 8 kts 85°
2026-05-06 04:08 40.78670 -111.98903 4225 ft 5 kts 134°
2026-05-06 04:09 40.78651 -111.98892 4225 ft 1 kts 173°
2026-05-06 04:09 40.78615 -111.98888 4225 ft 6 kts 174°
2026-05-06 04:09 40.78601 -111.98885 4225 ft 0 kts 174°